Regional Weather Roundup
Issued by NWS

Home | Current Version | Previous Version | Graphics & Text | Print | Product List | Glossary On
Versions: 1 2 3 4 5 6 7 8 9 10 11 12 13 14 15 16 17 18 19 20 21 22 23 24 25 26 27 28 29 30 31 32 33 34 35 36 37 38 39 40 41 42 43 44 45 46 47 48 49 50
000
ASUS43 KLSX 200657
RWRMO

WEATHER SUMMARY FOR MISSOURI
NATIONAL WEATHER SERVICE SPRINGFIELD MO
100 AM CST FRI JAN 20 2017

NOTE: "FAIR" INDICATES FEW OR NO CLOUDS BELOW 12,000 FEET WITH NO
       SIGNIFICANT WEATHER AND/OR OBSTRUCTIONS TO VISIBILITY.
       CURRENT SKY AND/OR WEATHER CONDITIONS ARE NOT AVAILABLE FOR
       CHILLICOTHE AND FARMINGTON.

MOZ001>031-035>038-043-044-053-054-200800-
...NORTHERN AND WESTERN MISSOURI...

CITY           SKY/WX    TMP DP  RH WIND       PRES   REMARKS
KANSAS CTY INT FOG       45  43  93 CALM      29.60F VSB 1/4
KANSAS C DTWN  CLOUDY    46  46 100 CALM      29.60F FOG
LEE`S SUMMIT   CLOUDY    46  46 100 E3        29.60F FOG
ST JOSEPH      FOG       42  42 100 N6        29.60F VSB 1/2
CHILLICOTHE      N/A     43  43 100 CALM      29.63F

$$
MOZ066>068-077>081-088>096-101>105-200800-
...SOUTHWEST MISSOURI...

CITY           SKY/WX    TMP DP  RH WIND       PRES   REMARKS
SPRINGFIELD    FOG       47  47 100 S6        29.61S VSB 1/4
JOPLIN         CLOUDY    50  48  93 SE3       29.61S

$$
MOZ032>034-039>042-045>050-055>058-069>072-200800-
...CENTRAL MISSOURI...

CITY           SKY/WX    TMP DP  RH WIND       PRES   REMARKS
COLUMBIA       NOT AVBL
JEFFERSON CITY CLOUDY    47  46  97 CALM      29.62F
ROLLA          FOG       48  48 100 SW5       29.60F VSB 1/4
SEDALIA        FOG       47  46  97 E3        29.62F VSB 1/4
WARRENSBURG    FOG       46  45  93 CALM      29.61F VSB 1/4

$$
MOZ051-052-059>065-200800-
...EAST CENTRAL MISSOURI...

CITY           SKY/WX    TMP DP  RH WIND       PRES   REMARKS
ST LOUIS INTL  NOT AVBL

$$
MOZ072>076-082>087-097>100-106>115-200800-
...SOUTH CENTRAL AND SOUTHEAST MISSOURI...

CITY           SKY/WX    TMP DP  RH WIND       PRES   REMARKS
CAPE GIRARDEAU CLOUDY    52  51  97 SW10      29.64S FOG
POPLAR BLUFF   CLOUDY    50  50 100 SW9       29.65F FOG
WEST PLAINS    CLOUDY    49  48  97 SW6       29.65S

$$



USA.gov is the U.S. government's official web portal to all federal, state and local government web resources and services.